Year,Month,Day,Hour,Minute,Value (Times are PST for temperature in C)
2016,08,23,00,00,12.20
2016,08,23,00,01,12.20
2016,08,23,00,02,12.20
2016,08,23,00,03,12.20
2016,08,23,00,04,12.20
2016,08,23,00,05,12.20
2016,08,23,00,06,12.20
2016,08,23,00,07,12.20
2016,08,23,00,08,12.20
2016,08,23,00,09,12.20
2016,08,23,00,10,12.20
2016,08,23,00,11,12.20
2016,08,23,00,12,12.20
2016,08,23,00,13,12.20
2016,08,23,00,14,12.20
2016,08,23,00,15,12.20
2016,08,23,00,16,12.20
2016,08,23,00,17,12.10
2016,08,23,00,18,12.10
2016,08,23,00,19,12.10
2016,08,23,00,20,12.10
2016,08,23,00,21,12.10
2016,08,23,00,22,12.10
2016,08,23,00,23,12.10
2016,08,23,00,24,12.10
2016,08,23,00,25,12.10
2016,08,23,00,26,12.00
2016,08,23,00,27,12.00
2016,08,23,00,28,12.00
2016,08,23,00,29,12.00
2016,08,23,00,30,12.00
2016,08,23,00,31,12.00
2016,08,23,00,32,12.00
2016,08,23,00,33,12.00
2016,08,23,00,34,12.00
2016,08,23,00,35,12.00
2016,08,23,00,36,11.90
2016,08,23,00,37,11.90
2016,08,23,00,38,11.90
2016,08,23,00,39,11.90
2016,08,23,00,40,11.90
2016,08,23,00,41,11.90
2016,08,23,00,42,11.80
2016,08,23,00,43,11.80
2016,08,23,00,44,11.80
2016,08,23,00,45,11.80
2016,08,23,00,46,11.80
2016,08,23,00,47,11.80
2016,08,23,00,48,11.80
2016,08,23,00,49,11.80
2016,08,23,00,50,11.80
2016,08,23,00,51,11.70
2016,08,23,00,52,11.70
2016,08,23,00,53,11.70
2016,08,23,00,54,11.70
2016,08,23,00,55,11.70
2016,08,23,00,56,11.70
2016,08,23,00,57,11.70
2016,08,23,00,58,11.70
2016,08,23,00,59,11.70
2016,08,23,01,00,11.70
2016,08,23,01,01,11.70
2016,08,23,01,02,11.60
2016,08,23,01,03,11.60
2016,08,23,01,04,11.60
2016,08,23,01,05,11.60
2016,08,23,01,06,11.60
2016,08,23,01,07,11.60
2016,08,23,01,08,11.60
2016,08,23,01,09,11.60
2016,08,23,01,10,11.60
2016,08,23,01,11,11.60
2016,08,23,01,12,11.60
2016,08,23,01,13,11.50
2016,08,23,01,14,11.50
2016,08,23,01,15,11.50
2016,08,23,01,16,11.50
2016,08,23,01,17,11.50
2016,08,23,01,18,11.50
2016,08,23,01,19,11.50
2016,08,23,01,20,11.50
2016,08,23,01,21,11.50
2016,08,23,01,22,11.50
2016,08,23,01,23,11.50
2016,08,23,01,24,11.40
2016,08,23,01,25,11.40
2016,08,23,01,26,11.40
2016,08,23,01,27,11.40
2016,08,23,01,28,11.40
2016,08,23,01,29,11.40
2016,08,23,01,30,11.40
2016,08,23,01,31,11.40
2016,08,23,01,32,11.30
2016,08,23,01,33,11.30
2016,08,23,01,34,11.30
2016,08,23,01,35,11.30
2016,08,23,01,36,11.30
2016,08,23,01,37,11.30
2016,08,23,01,38,11.30
2016,08,23,01,39,11.30
2016,08,23,01,40,11.30
2016,08,23,01,41,11.30
2016,08,23,01,42,11.30
2016,08,23,01,43,11.30
2016,08,23,01,44,11.30
2016,08,23,01,45,11.30
2016,08,23,01,46,11.30
2016,08,23,01,47,11.20
2016,08,23,01,48,11.20
2016,08,23,01,49,11.20
2016,08,23,01,50,11.20
2016,08,23,01,51,11.20
2016,08,23,01,52,11.20
2016,08,23,01,53,11.20
2016,08,23,01,54,11.20
2016,08,23,01,55,11.20
2016,08,23,01,56,11.20
2016,08,23,01,57,11.20
2016,08,23,01,58,11.20
2016,08,23,01,59,11.20
2016,08,23,02,00,11.20
2016,08,23,02,01,11.10
2016,08,23,02,02,11.10
2016,08,23,02,03,11.10
2016,08,23,02,04,11.10
2016,08,23,02,05,11.10
2016,08,23,02,06,11.10
2016,08,23,02,07,11.10
2016,08,23,02,08,11.10
2016,08,23,02,09,11.10
2016,08,23,02,10,11.10
2016,08,23,02,11,11.10
2016,08,23,02,12,11.10
2016,08,23,02,13,11.10
2016,08,23,02,14,11.10
2016,08,23,02,15,11.10
2016,08,23,02,16,11.10
2016,08,23,02,17,11.10
2016,08,23,02,18,11.10
2016,08,23,02,19,11.10
2016,08,23,02,20,11.10
2016,08,23,02,21,11.10
2016,08,23,02,22,11.10
2016,08,23,02,23,11.10
2016,08,23,02,24,11.10
2016,08,23,02,25,11.10
2016,08,23,02,26,11.10
2016,08,23,02,27,11.10
2016,08,23,02,28,11.00
2016,08,23,02,29,11.00
2016,08,23,02,30,11.00
2016,08,23,02,31,11.00
2016,08,23,02,32,11.00
2016,08,23,02,33,11.00
2016,08,23,02,34,11.00
2016,08,23,02,35,11.00
2016,08,23,02,36,11.00
2016,08,23,02,37,11.00
2016,08,23,02,38,11.00
2016,08,23,02,39,11.00
2016,08,23,02,40,11.00
2016,08,23,02,41,11.00
2016,08,23,02,42,11.00
2016,08,23,02,43,10.90
2016,08,23,02,44,10.90
2016,08,23,02,45,10.90
2016,08,23,02,46,10.90
2016,08,23,02,47,10.90
2016,08,23,02,48,10.80
2016,08,23,02,49,10.80
2016,08,23,02,50,10.80
2016,08,23,02,51,10.80
2016,08,23,02,52,10.80
2016,08,23,02,53,10.80
2016,08,23,02,54,10.80
2016,08,23,02,55,10.80
2016,08,23,02,56,10.80
2016,08,23,02,57,10.80
2016,08,23,02,58,10.80
2016,08,23,02,59,10.80
2016,08,23,03,00,10.80
2016,08,23,03,01,10.80
2016,08,23,03,02,10.80
2016,08,23,03,03,10.80
2016,08,23,03,04,10.80
2016,08,23,03,05,10.80
2016,08,23,03,06,10.80
2016,08,23,03,07,10.80
2016,08,23,03,08,10.70
2016,08,23,03,09,10.70
2016,08,23,03,10,10.70
2016,08,23,03,11,10.70
2016,08,23,03,12,10.70
2016,08,23,03,13,10.70
2016,08,23,03,14,10.60
2016,08,23,03,15,10.60
2016,08,23,03,16,10.60
2016,08,23,03,17,10.60
2016,08,23,03,18,10.60
2016,08,23,03,19,10.60
2016,08,23,03,20,10.60
2016,08,23,03,21,10.60
2016,08,23,03,22,10.60
2016,08,23,03,23,10.60
2016,08,23,03,24,10.60
2016,08,23,03,25,10.60
2016,08,23,03,26,10.60
2016,08,23,03,27,10.60
2016,08,23,03,28,10.60
2016,08,23,03,29,10.60
2016,08,23,03,30,10.60
2016,08,23,03,31,10.60
2016,08,23,03,32,10.60
2016,08,23,03,33,10.60
2016,08,23,03,34,10.60
2016,08,23,03,35,10.60
2016,08,23,03,36,10.60
2016,08,23,03,37,10.60
2016,08,23,03,38,10.60
2016,08,23,03,39,10.60
2016,08,23,03,40,10.60
2016,08,23,03,41,10.60
2016,08,23,03,42,10.60
2016,08,23,03,43,10.60
2016,08,23,03,44,10.60
2016,08,23,03,45,10.60
2016,08,23,03,46,10.60
2016,08,23,03,47,10.60
2016,08,23,03,48,10.60
2016,08,23,03,49,10.60
2016,08,23,03,50,10.50
2016,08,23,03,51,10.50
2016,08,23,03,52,10.50
2016,08,23,03,53,10.50
2016,08,23,03,54,10.60
2016,08,23,03,55,10.60
2016,08,23,03,56,10.60
2016,08,23,03,57,10.70
2016,08,23,03,58,10.70
2016,08,23,03,59,10.70
2016,08,23,04,00,10.80
2016,08,23,04,01,10.80
2016,08,23,04,02,10.80
2016,08,23,04,03,10.80
2016,08,23,04,04,10.80
2016,08,23,04,05,10.80
2016,08,23,04,06,10.80
2016,08,23,04,07,10.80
2016,08,23,04,08,10.80
2016,08,23,04,09,10.80
2016,08,23,04,10,10.80
2016,08,23,04,11,10.80
2016,08,23,04,12,10.80
2016,08,23,04,13,10.90
2016,08,23,04,14,11.00
2016,08,23,04,15,11.10
2016,08,23,04,16,11.20
2016,08,23,04,17,11.30
2016,08,23,04,18,11.40
2016,08,23,04,19,11.40
2016,08,23,04,20,11.50
2016,08,23,04,21,11.60
2016,08,23,04,22,11.60
2016,08,23,04,23,11.70
2016,08,23,04,24,11.80
2016,08,23,04,25,11.80
2016,08,23,04,26,11.90
2016,08,23,04,27,12.00
2016,08,23,04,28,12.10
2016,08,23,04,29,12.20
2016,08,23,04,30,12.30
2016,08,23,04,31,12.40
2016,08,23,04,32,12.40
2016,08,23,04,33,12.50
2016,08,23,04,34,12.50
2016,08,23,04,35,12.50
2016,08,23,04,36,12.50
2016,08,23,04,37,12.50
2016,08,23,04,38,12.40
2016,08,23,04,39,12.40
2016,08,23,04,40,12.40
2016,08,23,04,41,12.30
2016,08,23,04,42,12.30
2016,08,23,04,43,12.30
2016,08,23,04,44,12.20
2016,08,23,04,45,12.20
2016,08,23,04,46,12.20
2016,08,23,04,47,12.10
2016,08,23,04,48,12.10
2016,08,23,04,49,12.10
2016,08,23,04,50,12.00
2016,08,23,04,51,12.00
2016,08,23,04,52,11.90
2016,08,23,04,53,11.90
2016,08,23,04,54,11.90
2016,08,23,04,55,11.80
2016,08,23,04,56,11.80
2016,08,23,04,57,11.80
2016,08,23,04,58,11.80
2016,08,23,04,59,11.80
2016,08,23,05,00,11.80
2016,08,23,05,01,11.80
2016,08,23,05,02,11.80
2016,08,23,05,03,11.80
2016,08,23,05,04,11.80
2016,08,23,05,05,11.80
2016,08,23,05,06,11.80
2016,08,23,05,07,11.80
2016,08,23,05,08,11.80
2016,08,23,05,09,11.80
2016,08,23,05,10,11.80
2016,08,23,05,11,11.80
2016,08,23,05,12,11.80
2016,08,23,05,13,11.70
2016,08,23,05,14,11.70
2016,08,23,05,15,11.70
2016,08,23,05,16,11.70
2016,08,23,05,17,11.70
2016,08,23,05,18,11.70
2016,08,23,05,19,11.60
2016,08,23,05,20,11.60
2016,08,23,05,21,11.60
2016,08,23,05,22,11.60
2016,08,23,05,23,11.60
2016,08,23,05,24,11.60
2016,08,23,05,25,11.60
2016,08,23,05,26,11.60
2016,08,23,05,27,11.60
2016,08,23,05,28,11.50
2016,08,23,05,29,11.60
2016,08,23,05,30,11.50
2016,08,23,05,31,11.50
2016,08,23,05,32,11.50
2016,08,23,05,33,11.50
2016,08,23,05,34,11.50
2016,08,23,05,35,11.50
2016,08,23,05,36,11.50
2016,08,23,05,37,11.50
2016,08,23,05,38,11.50
2016,08,23,05,39,11.50
2016,08,23,05,40,11.50
2016,08,23,05,41,11.40
2016,08,23,05,42,11.40
2016,08,23,05,43,11.40
2016,08,23,05,44,11.40
2016,08,23,05,45,11.40
2016,08,23,05,46,11.40
2016,08,23,05,47,11.30
2016,08,23,05,48,11.30
2016,08,23,05,49,11.30
2016,08,23,05,50,11.30
2016,08,23,05,51,11.30
2016,08,23,05,52,11.40
2016,08,23,05,53,11.40
2016,08,23,05,54,11.40
2016,08,23,05,55,11.40
2016,08,23,05,56,11.40
2016,08,23,05,57,11.40
2016,08,23,05,58,11.40
2016,08,23,05,59,11.40
2016,08,23,06,00,11.40
2016,08,23,06,01,11.40
2016,08,23,06,02,11.40
2016,08,23,06,03,11.40
2016,08,23,06,04,11.40
2016,08,23,06,05,11.40
2016,08,23,06,06,11.40
2016,08,23,06,07,11.40
2016,08,23,06,08,11.40
2016,08,23,06,09,11.30
2016,08,23,06,10,11.30
2016,08,23,06,11,11.30
2016,08,23,06,12,11.30
2016,08,23,06,13,11.30
2016,08,23,06,14,11.30
2016,08,23,06,15,11.30
2016,08,23,06,16,11.30
2016,08,23,06,17,11.30
2016,08,23,06,18,11.30
2016,08,23,06,19,11.30
2016,08,23,06,20,11.30
2016,08,23,06,21,11.30
2016,08,23,06,22,11.30
2016,08,23,06,23,11.30
2016,08,23,06,24,11.30
2016,08,23,06,25,11.30
2016,08,23,06,26,11.30
2016,08,23,06,27,11.30
2016,08,23,06,28,11.30
2016,08,23,06,29,11.30
2016,08,23,06,30,11.30
2016,08,23,06,31,11.30
2016,08,23,06,32,11.30
2016,08,23,06,33,11.30
2016,08,23,06,34,11.30
2016,08,23,06,35,11.30
2016,08,23,06,36,11.30
2016,08,23,06,37,11.40
2016,08,23,06,38,11.40
2016,08,23,06,39,11.40
2016,08,23,06,40,11.40
2016,08,23,06,41,11.40
2016,08,23,06,42,11.40
2016,08,23,06,43,11.40
2016,08,23,06,44,11.40
2016,08,23,06,45,11.40
2016,08,23,06,46,11.40
2016,08,23,06,47,11.40
2016,08,23,06,48,11.50
2016,08,23,06,49,11.50
2016,08,23,06,50,11.50
2016,08,23,06,51,11.50
2016,08,23,06,52,11.50
2016,08,23,06,53,11.50
2016,08,23,06,54,11.50
2016,08,23,06,55,11.50
2016,08,23,06,56,11.50
2016,08,23,06,57,11.50
2016,08,23,06,58,11.50
2016,08,23,06,59,11.50
2016,08,23,07,00,11.60
2016,08,23,07,01,11.60
2016,08,23,07,02,11.60
2016,08,23,07,03,11.60
2016,08,23,07,04,11.60
2016,08,23,07,05,11.70
2016,08,23,07,06,11.70
2016,08,23,07,07,11.70
2016,08,23,07,08,11.70
2016,08,23,07,09,11.80
2016,08,23,07,10,11.80
2016,08,23,07,11,11.80
2016,08,23,07,12,11.80
2016,08,23,07,13,11.80
2016,08,23,07,14,11.90
2016,08,23,07,15,11.90
2016,08,23,07,16,11.90
2016,08,23,07,17,11.90
2016,08,23,07,18,12.00
2016,08,23,07,19,12.00
2016,08,23,07,20,12.10
2016,08,23,07,21,12.10
2016,08,23,07,22,12.10
2016,08,23,07,23,12.10
2016,08,23,07,24,12.20
2016,08,23,07,25,12.20
2016,08,23,07,26,12.20
2016,08,23,07,27,12.20
2016,08,23,07,28,12.30
2016,08,23,07,29,12.30
2016,08,23,07,30,12.30
2016,08,23,07,31,12.30
2016,08,23,07,32,12.40
2016,08,23,07,33,12.40
2016,08,23,07,34,12.40
2016,08,23,07,35,12.50
2016,08,23,07,36,12.60
2016,08,23,07,37,12.60
2016,08,23,07,38,12.60
2016,08,23,07,39,12.70
2016,08,23,07,40,12.80
2016,08,23,07,41,12.90
2016,08,23,07,42,13.00
2016,08,23,07,43,13.10
2016,08,23,07,44,13.20
2016,08,23,07,45,13.30
2016,08,23,07,46,13.50
2016,08,23,07,47,13.60
2016,08,23,07,48,13.70
2016,08,23,07,49,13.90
2016,08,23,07,50,14.00
2016,08,23,07,51,14.00
2016,08,23,07,52,14.10
2016,08,23,07,53,14.20
2016,08,23,07,54,14.30
2016,08,23,07,55,14.30
2016,08,23,07,56,14.40
2016,08,23,07,57,14.60
2016,08,23,07,58,14.70
2016,08,23,07,59,14.80
2016,08,23,08,00,14.90
2016,08,23,08,01,15.00
2016,08,23,08,02,15.10
2016,08,23,08,03,15.20
2016,08,23,08,04,15.30
2016,08,23,08,05,15.40
2016,08,23,08,06,15.50
2016,08,23,08,07,15.60
2016,08,23,08,08,15.70
2016,08,23,08,09,15.70
2016,08,23,08,10,15.80
2016,08,23,08,11,15.90
2016,08,23,08,12,15.90
2016,08,23,08,13,16.00
2016,08,23,08,14,16.10
2016,08,23,08,15,16.20
2016,08,23,08,16,16.20
2016,08,23,08,17,16.30
2016,08,23,08,18,16.30
2016,08,23,08,19,16.30
2016,08,23,08,20,16.40
2016,08,23,08,21,16.40
2016,08,23,08,22,16.50
2016,08,23,08,23,16.50
2016,08,23,08,24,16.60
2016,08,23,08,25,16.60
2016,08,23,08,26,16.70
2016,08,23,08,27,16.70
2016,08,23,08,28,16.70
2016,08,23,08,29,16.80
2016,08,23,08,30,16.80
2016,08,23,08,31,16.90
2016,08,23,08,32,16.90
2016,08,23,08,33,16.90
2016,08,23,08,34,17.00
2016,08,23,08,35,17.00
2016,08,23,08,36,17.10
2016,08,23,08,37,17.10
2016,08,23,08,38,17.10
2016,08,23,08,39,17.20
2016,08,23,08,40,17.20
2016,08,23,08,41,17.20
2016,08,23,08,42,17.30
2016,08,23,08,43,17.30
2016,08,23,08,44,17.30
2016,08,23,08,45,17.40
2016,08,23,08,46,17.40
2016,08,23,08,47,17.40
2016,08,23,08,48,17.50
2016,08,23,08,49,17.50
2016,08,23,08,50,17.50
2016,08,23,08,51,17.50
2016,08,23,08,52,17.60
2016,08,23,08,53,17.60
2016,08,23,08,54,17.60
2016,08,23,08,55,17.60
2016,08,23,08,56,17.60
2016,08,23,08,57,17.70
2016,08,23,08,58,17.70
2016,08,23,08,59,17.80
2016,08,23,09,00,17.80
2016,08,23,09,01,17.90
2016,08,23,09,02,18.00
2016,08,23,09,03,18.00
2016,08,23,09,04,18.10
2016,08,23,09,05,18.20
2016,08,23,09,06,18.30
2016,08,23,09,07,18.40
2016,08,23,09,08,18.40
2016,08,23,09,09,18.50
2016,08,23,09,10,18.60
2016,08,23,09,11,18.60
2016,08,23,09,12,18.70
2016,08,23,09,13,18.70
2016,08,23,09,14,18.70
2016,08,23,09,15,18.70
2016,08,23,09,16,18.80
2016,08,23,09,17,18.80
2016,08,23,09,18,18.80
2016,08,23,09,19,18.90
2016,08,23,09,20,18.90
2016,08,23,09,21,19.00
2016,08,23,09,22,19.00
2016,08,23,09,23,19.10
2016,08,23,09,24,19.10
2016,08,23,09,25,19.10
2016,08,23,09,26,19.10
2016,08,23,09,27,19.20
2016,08,23,09,28,19.20
2016,08,23,09,29,19.30
2016,08,23,09,30,19.30
2016,08,23,09,31,19.30
2016,08,23,09,32,19.40
2016,08,23,09,33,19.40
2016,08,23,09,34,19.50
2016,08,23,09,35,19.50
2016,08,23,09,36,19.60
2016,08,23,09,37,19.60
2016,08,23,09,38,19.60
2016,08,23,09,39,19.60
2016,08,23,09,40,19.60
2016,08,23,09,41,19.60
2016,08,23,09,42,19.70
2016,08,23,09,43,19.70
2016,08,23,09,44,19.70
2016,08,23,09,45,19.80
2016,08,23,09,46,19.80
2016,08,23,09,47,19.80
2016,08,23,09,48,19.80
2016,08,23,09,49,19.80
2016,08,23,09,50,19.80
2016,08,23,09,51,19.90
2016,08,23,09,52,19.90
2016,08,23,09,53,19.90
2016,08,23,09,54,20.00
2016,08,23,09,55,20.10
2016,08,23,09,56,20.10
2016,08,23,09,57,20.20
2016,08,23,09,58,20.20
2016,08,23,09,59,20.30
2016,08,23,10,00,20.40
2016,08,23,10,01,20.40
2016,08,23,10,02,20.40
2016,08,23,10,03,20.50
2016,08,23,10,04,20.50
2016,08,23,10,05,20.50
2016,08,23,10,06,20.50
2016,08,23,10,07,20.50
2016,08,23,10,08,20.60
2016,08,23,10,09,20.60
2016,08,23,10,10,20.70
2016,08,23,10,11,20.70
2016,08,23,10,12,20.80
2016,08,23,10,13,20.80
2016,08,23,10,14,20.90
2016,08,23,10,15,20.90
2016,08,23,10,16,21.00
2016,08,23,10,17,21.10
2016,08,23,10,18,21.00
2016,08,23,10,19,21.00
2016,08,23,10,20,20.90
2016,08,23,10,21,20.80
2016,08,23,10,22,20.80
2016,08,23,10,23,20.80
2016,08,23,10,24,20.80
2016,08,23,10,25,20.70
2016,08,23,10,26,20.70
2016,08,23,10,27,20.70
2016,08,23,10,28,20.70
2016,08,23,10,29,20.70
2016,08,23,10,30,20.70
2016,08,23,10,31,20.60
2016,08,23,10,32,20.60
2016,08,23,10,33,20.60
2016,08,23,10,34,20.60
2016,08,23,10,35,20.70
2016,08,23,10,36,20.70
2016,08,23,10,37,20.80
2016,08,23,10,38,20.90
2016,08,23,10,39,20.90
2016,08,23,10,40,21.00
2016,08,23,10,41,21.10
2016,08,23,10,42,21.20
2016,08,23,10,43,21.20
2016,08,23,10,44,21.30
2016,08,23,10,45,21.40
2016,08,23,10,46,21.40
2016,08,23,10,47,21.40
2016,08,23,10,48,21.40
2016,08,23,10,49,21.50
2016,08,23,10,50,21.50
2016,08,23,10,51,21.50
2016,08,23,10,52,21.50
2016,08,23,10,53,21.50
2016,08,23,10,54,21.50
2016,08,23,10,55,21.50
2016,08,23,10,56,21.50
2016,08,23,10,57,21.50
2016,08,23,10,58,21.60
2016,08,23,10,59,21.60
2016,08,23,11,00,21.60
2016,08,23,11,01,21.60
2016,08,23,11,02,21.70
2016,08,23,11,03,21.70
2016,08,23,11,04,21.70
2016,08,23,11,05,21.60
2016,08,23,11,06,21.50
2016,08,23,11,07,21.50
2016,08,23,11,08,21.50
2016,08,23,11,09,21.60
2016,08,23,11,10,21.60
2016,08,23,11,11,21.60
2016,08,23,11,12,21.60
2016,08,23,11,13,21.50
2016,08,23,11,14,21.40
2016,08,23,11,15,21.40
2016,08,23,11,16,21.30
2016,08,23,11,17,21.30
2016,08,23,11,18,21.30
2016,08,23,11,19,21.30
2016,08,23,11,20,21.40
2016,08,23,11,21,21.40
2016,08,23,11,22,21.50
2016,08,23,11,23,21.60
2016,08,23,11,24,21.70
2016,08,23,11,25,21.70
2016,08,23,11,26,21.80
2016,08,23,11,27,21.80
2016,08,23,11,28,21.70
2016,08,23,11,29,21.60
2016,08,23,11,30,21.60
2016,08,23,11,31,21.60
2016,08,23,11,32,21.60
2016,08,23,11,33,21.60
2016,08,23,11,34,21.50
2016,08,23,11,35,21.50
2016,08,23,11,36,21.40
2016,08,23,11,37,21.40
2016,08,23,11,38,21.40
2016,08,23,11,39,21.40
2016,08,23,11,40,21.50
2016,08,23,11,41,21.50
2016,08,23,11,42,21.60
2016,08,23,11,43,21.70
2016,08,23,11,44,21.80
2016,08,23,11,45,21.90
2016,08,23,11,46,22.00
2016,08,23,11,47,22.10
2016,08,23,11,48,22.10
2016,08,23,11,49,22.20
2016,08,23,11,50,22.30
2016,08,23,11,51,22.30
2016,08,23,11,52,22.30
2016,08,23,11,53,22.30
2016,08,23,11,54,22.30
2016,08,23,11,55,22.30
2016,08,23,11,56,22.30
2016,08,23,11,57,22.30
2016,08,23,11,58,22.40
2016,08,23,11,59,22.40
2016,08,23,12,00,22.40
2016,08,23,12,01,22.40
2016,08,23,12,02,22.50
2016,08,23,12,03,22.50
2016,08,23,12,04,22.60
2016,08,23,12,05,22.60
2016,08,23,12,06,22.50
2016,08,23,12,07,22.50
2016,08,23,12,08,22.40
2016,08,23,12,09,22.40
2016,08,23,12,10,22.40
2016,08,23,12,11,22.50
2016,08,23,12,12,22.50
2016,08,23,12,13,22.60
2016,08,23,12,14,22.60
2016,08,23,12,15,22.70
2016,08,23,12,16,22.70
2016,08,23,12,17,22.70
2016,08,23,12,18,22.80
2016,08,23,12,19,22.80
2016,08,23,12,20,22.90
2016,08,23,12,21,23.00
2016,08,23,12,22,23.00
2016,08,23,12,23,23.00
2016,08,23,12,24,23.10
2016,08,23,12,25,23.10
2016,08,23,12,26,23.10
2016,08,23,12,27,23.10
2016,08,23,12,28,23.10
2016,08,23,12,29,23.10
2016,08,23,12,30,23.10
2016,08,23,12,31,23.00
2016,08,23,12,32,23.00
2016,08,23,12,33,22.90
2016,08,23,12,34,22.90
2016,08,23,12,35,22.80
2016,08,23,12,36,22.80
2016,08,23,12,37,22.70
2016,08,23,12,38,22.70
2016,08,23,12,39,22.60
2016,08,23,12,40,22.60
2016,08,23,12,41,22.60
2016,08,23,12,42,22.60
2016,08,23,12,43,22.70
2016,08,23,12,44,22.80
2016,08,23,12,45,22.80
2016,08,23,12,46,22.90
2016,08,23,12,47,22.90
2016,08,23,12,48,23.00
2016,08,23,12,49,23.00
2016,08,23,12,50,23.10
2016,08,23,12,51,23.10
2016,08,23,12,52,23.20
2016,08,23,12,53,23.20
2016,08,23,12,54,23.30
2016,08,23,12,55,23.30
2016,08,23,12,56,23.30
2016,08,23,12,57,23.30
2016,08,23,12,58,23.20
2016,08,23,12,59,23.10
2016,08,23,13,00,23.10
2016,08,23,13,01,23.10
2016,08,23,13,02,23.10
2016,08,23,13,03,23.10
2016,08,23,13,04,23.20
2016,08,23,13,05,23.20
2016,08,23,13,06,23.20
2016,08,23,13,07,23.30
2016,08,23,13,08,23.30
2016,08,23,13,09,23.30
2016,08,23,13,10,23.40
2016,08,23,13,11,23.50
2016,08,23,13,12,23.60
2016,08,23,13,13,23.70
2016,08,23,13,14,23.70
2016,08,23,13,15,23.70
2016,08,23,13,16,23.70
2016,08,23,13,17,23.80
2016,08,23,13,18,23.70
2016,08,23,13,19,23.50
2016,08,23,13,20,23.40
2016,08,23,13,21,23.30
2016,08,23,13,22,23.30
2016,08,23,13,23,23.20
2016,08,23,13,24,23.20
2016,08,23,13,25,23.20
2016,08,23,13,26,23.20
2016,08,23,13,27,23.20
2016,08,23,13,28,23.20
2016,08,23,13,29,23.20
2016,08,23,13,30,23.20
2016,08,23,13,31,23.20
2016,08,23,13,32,23.30
2016,08,23,13,33,23.30
2016,08,23,13,34,23.30
2016,08,23,13,35,23.40
2016,08,23,13,36,23.50
2016,08,23,13,37,23.50
2016,08,23,13,38,23.60
2016,08,23,13,39,23.70
2016,08,23,13,40,23.70
2016,08,23,13,41,23.80
2016,08,23,13,42,23.80
2016,08,23,13,43,23.90
2016,08,23,13,44,24.00
2016,08,23,13,45,24.10
2016,08,23,13,46,24.10
2016,08,23,13,47,24.20
2016,08,23,13,48,24.20
2016,08,23,13,49,24.20
2016,08,23,13,50,24.20
2016,08,23,13,51,24.20
2016,08,23,13,52,24.20
2016,08,23,13,53,24.20
2016,08,23,13,54,24.30
2016,08,23,13,55,24.30
2016,08,23,13,56,24.40
2016,08,23,13,57,24.50
2016,08,23,13,58,24.50
2016,08,23,13,59,24.60
2016,08,23,14,00,24.70
2016,08,23,14,01,24.80
2016,08,23,14,02,24.80
2016,08,23,14,03,24.90
2016,08,23,14,04,24.90
2016,08,23,14,05,25.00
2016,08,23,14,06,25.00
2016,08,23,14,07,24.90
2016,08,23,14,08,24.80
2016,08,23,14,09,24.80
2016,08,23,14,10,24.70
2016,08,23,14,11,24.80
2016,08,23,14,12,24.80
2016,08,23,14,13,24.90
2016,08,23,14,14,24.90
2016,08,23,14,15,25.00
2016,08,23,14,16,24.90
2016,08,23,14,17,24.90
2016,08,23,14,18,24.70
2016,08,23,14,19,24.50
2016,08,23,14,20,24.50
2016,08,23,14,21,24.40
2016,08,23,14,22,24.40
2016,08,23,14,23,24.40
2016,08,23,14,24,24.50
2016,08,23,14,25,24.60
2016,08,23,14,26,24.60
2016,08,23,14,27,24.60
2016,08,23,14,28,24.70
2016,08,23,14,29,24.70
2016,08,23,14,30,24.70
2016,08,23,14,31,24.70
2016,08,23,14,32,24.70
2016,08,23,14,33,24.70
2016,08,23,14,34,24.80
2016,08,23,14,35,24.80
2016,08,23,14,36,24.80
2016,08,23,14,37,24.90
2016,08,23,14,38,24.90
2016,08,23,14,39,24.90
2016,08,23,14,40,25.00
2016,08,23,14,41,25.10
2016,08,23,14,42,25.20
2016,08,23,14,43,25.20
2016,08,23,14,44,25.20
2016,08,23,14,45,25.20
2016,08,23,14,46,25.20
2016,08,23,14,47,25.20
2016,08,23,14,48,25.30
2016,08,23,14,49,25.30
2016,08,23,14,50,25.30
2016,08,23,14,51,25.30
2016,08,23,14,52,25.30
2016,08,23,14,53,25.30
2016,08,23,14,54,25.30
2016,08,23,14,55,25.30
2016,08,23,14,56,25.30
2016,08,23,14,57,25.40
2016,08,23,14,58,25.40
2016,08,23,14,59,25.50
2016,08,23,15,00,25.60
2016,08,23,15,01,25.60
2016,08,23,15,02,25.70
2016,08,23,15,03,25.80
2016,08,23,15,04,25.90
2016,08,23,15,05,26.00
2016,08,23,15,06,26.10
2016,08,23,15,07,26.10
2016,08,23,15,08,26.10
2016,08,23,15,09,26.00
2016,08,23,15,10,25.80
2016,08,23,15,11,25.70
2016,08,23,15,12,25.70
2016,08,23,15,13,25.60
2016,08,23,15,14,25.60
2016,08,23,15,15,25.60
2016,08,23,15,16,25.70
2016,08,23,15,17,25.70
2016,08,23,15,18,25.70
2016,08,23,15,19,25.70
2016,08,23,15,20,25.70
2016,08,23,15,21,25.70
2016,08,23,15,22,25.60
2016,08,23,15,23,25.60
2016,08,23,15,24,25.60
2016,08,23,15,25,25.60
2016,08,23,15,26,25.60
2016,08,23,15,27,25.60
2016,08,23,15,28,25.50
2016,08,23,15,29,25.40
2016,08,23,15,30,25.40
2016,08,23,15,31,25.30
2016,08,23,15,32,25.20
2016,08,23,15,33,25.10
2016,08,23,15,34,25.00
2016,08,23,15,35,24.90
2016,08,23,15,36,24.90
2016,08,23,15,37,24.90
2016,08,23,15,38,24.90
2016,08,23,15,39,24.90
2016,08,23,15,40,24.90
2016,08,23,15,41,24.90
2016,08,23,15,42,24.80
2016,08,23,15,43,24.70
2016,08,23,15,44,24.70
2016,08,23,15,45,24.70
2016,08,23,15,46,24.70
2016,08,23,15,47,24.70
2016,08,23,15,48,24.80
2016,08,23,15,49,24.80
2016,08,23,15,50,24.90
2016,08,23,15,51,24.90
2016,08,23,15,52,24.90
2016,08,23,15,53,24.90
2016,08,23,15,54,24.90
2016,08,23,15,55,24.90
2016,08,23,15,56,24.90
2016,08,23,15,57,24.90
2016,08,23,15,58,24.90
2016,08,23,15,59,24.90
2016,08,23,16,00,25.00
2016,08,23,16,01,25.10
2016,08,23,16,02,25.10
2016,08,23,16,03,25.20
2016,08,23,16,04,25.20
2016,08,23,16,05,25.20
2016,08,23,16,06,25.20
2016,08,23,16,07,25.20
2016,08,23,16,08,25.20
2016,08,23,16,09,25.20
2016,08,23,16,10,25.20
2016,08,23,16,11,25.20
2016,08,23,16,12,25.20
2016,08,23,16,13,25.20
2016,08,23,16,14,25.20
2016,08,23,16,15,25.30
2016,08,23,16,16,25.20
2016,08,23,16,17,25.20
2016,08,23,16,18,25.30
2016,08,23,16,19,25.30
2016,08,23,16,20,25.40
2016,08,23,16,21,25.50
2016,08,23,16,22,25.50
2016,08,23,16,23,25.60
2016,08,23,16,24,25.70
2016,08,23,16,25,25.80
2016,08,23,16,26,25.80
2016,08,23,16,27,25.90
2016,08,23,16,28,26.00
2016,08,23,16,29,26.00
2016,08,23,16,30,26.10
2016,08,23,16,31,26.20
2016,08,23,16,32,26.20
2016,08,23,16,33,26.20
2016,08,23,16,34,26.10
2016,08,23,16,35,26.00
2016,08,23,16,36,25.90
2016,08,23,16,37,25.80
2016,08,23,16,38,25.80
2016,08,23,16,39,25.80
2016,08,23,16,40,25.80
2016,08,23,16,41,25.80
2016,08,23,16,42,25.80
2016,08,23,16,43,25.70
2016,08,23,16,44,25.70
2016,08,23,16,45,25.80
2016,08,23,16,46,25.80
2016,08,23,16,47,25.80
2016,08,23,16,48,25.80
2016,08,23,16,49,25.80
2016,08,23,16,50,25.80
2016,08,23,16,51,25.80
2016,08,23,16,52,25.70
2016,08,23,16,53,25.70
2016,08,23,16,54,25.60
2016,08,23,16,55,25.60
2016,08,23,16,56,25.60
2016,08,23,16,57,25.60
2016,08,23,16,58,25.60
2016,08,23,16,59,25.70
2016,08,23,17,00,25.70
2016,08,23,17,01,25.80
2016,08,23,17,02,25.80
2016,08,23,17,03,25.80
2016,08,23,17,04,25.80
2016,08,23,17,05,25.80
2016,08,23,17,06,25.80
2016,08,23,17,07,25.80
2016,08,23,17,08,25.80
2016,08,23,17,09,25.70
2016,08,23,17,10,25.70
2016,08,23,17,11,25.70
2016,08,23,17,12,25.70
2016,08,23,17,13,25.60
2016,08,23,17,14,25.60
2016,08,23,17,15,25.60
2016,08,23,17,16,25.50
2016,08,23,17,17,25.50
2016,08,23,17,18,25.50
2016,08,23,17,19,25.60